This is the latest recevied weather packets stored in our database for station/object EA3CH. If no packets are shown the sender has not sent any weather packets the latest 10 day(s).
| Time | Temp. | Humidity | Pressure | Rain* | Wind** | Luminosity | Snow |
|---|---|---|---|---|---|---|---|
| 1787908504 | 22.22° C | 48% | 1019.1 hPa | 0 mm | - | 0 W/m² | - |
| 1787907605 | 21.67° C | 47% | 1019 hPa | 0 mm | - | 0 W/m² | - |
| 1787906704 | 21.67° C | 48% | 1019 hPa | 0 mm | - | 0 W/m² | - |
| 1787905804 | 21.11° C | 51% | 1018.8 hPa | 0 mm | - | 0 W/m² | - |
| 1787904904 | 21.11° C | 55% | 1018.6 hPa | 0 mm | - | 0 W/m² | - |
| 1787904004 | 20.56° C | 56% | 1018.6 hPa | 0 mm | - | 0 W/m² | - |
| 1787903106 | 20° C | 50% | 1018.4 hPa | 0 mm | - | 0 W/m² | - |
| 1787902206 | 20° C | 50% | 1018.2 hPa | 0 mm | - | 0 W/m² | - |
| 1787902204 | 19.44° C | 60% | 1018.4 hPa | 0 mm | - | 0 W/m² | - |
| 1787901303 | 19.44° C | 61% | 1018 hPa | 0 mm | - | 0 W/m² | - |
| 1787900406 | 18.89° C | 52% | 1017.8 hPa | 0 mm | - | 0 W/m² | - |
| 1787900404 | 18.89° C | 62% | 1018 hPa | 0 mm | - | 0 W/m² | - |
| 1787899506 | 19.44° C | 52% | 1017.7 hPa | 0 mm | - | 0 W/m² | - |
| 1787899504 | 18.89° C | 62% | 1017.9 hPa | 0 mm | - | 0 W/m² | - |
| 1787898606 | 19.44° C | 52% | 1017.6 hPa | 0 mm | - | 0 W/m² | - |
| 1787898603 | 18.33° C | 63% | 1017.8 hPa | 0 mm | - | 0 W/m² | - |
| 1787897705 | 18.33° C | 55% | 1017.4 hPa | 0 mm | - | 0 W/m² | - |
| 1787897704 | 17.78° C | 66% | 1017.6 hPa | 0 mm | - | 0 W/m² | - |
| 1787896812 | 17.22° C | 65% | 1017.5 hPa | 0 mm | - | 0 W/m² | - |
| 1787895903 | 17.78° C | 64% | 1017.2 hPa | 0 mm | - | 0 W/m² | - |
| 1787895004 | 17.78° C | 64% | 1016.9 hPa | 0 mm | - | 0 W/m² | - |
| 1787894104 | 17.78° C | 64% | 1017.1 hPa | 0 mm | - | 0 W/m² | - |
| 1787893204 | 17.78° C | 63% | 1017.3 hPa | 0 mm | - | 0 W/m² | - |
| 1787892304 | 17.78° C | 64% | 1016.8 hPa | 0 mm | - | 0 W/m² | - |
| 1787891405 | 18.33° C | 54% | 1016.9 hPa | 0 mm | - | 0 W/m² | - |
* Rain latest hour (hover to see other rain measurements)
** Current wind speed in m/s (hover to see current wind gust speed)